Regional Weather Roundup
Issued by NWS Kansas City/Pleasant Hill, MO

Home | Current Version | Previous Version | Graphics & Text | Print | Product List | Glossary Off
Versions: 1 2 3 4 5 6 7 8 9 10 11 12 13 14 15 16 17 18 19 20 21 22 23 24 25 26 27 28 29 30 31 32 33 34 35 36 37 38 39 40 41 42 43 44 45 46 47 48 49 50

000
ASUS43 KEAX 012310
RWREAX

WEATHER ROUNDUP FOR EASTERN KANSAS AND NORTHWEST MISSOURI
NATIONAL WEATHER SERVICE KANSAS CITY/PLEASANT HILL MO
600 PM CDT TUE SEP 01 2015

KSZ040-057-103>105-MOZ028-029-037-043-020000-
...KANSAS CITY METROPOLITAN AREA...

CITY           SKY/WX    TMP DP  RH WIND       PRES   REMARKS
K.C. INTL      MOSUNNY   87  67  51 SW12      29.98S HX  90
K.C. DOWNTOWN  SUNNY     89  67  47 S14       29.97S HX  92
LEES SUMMIT    SUNNY     87  64  46 S10       30.00S
OLATHE - IXD   SUNNY     85  68  56 S10       30.00F
OLATHE - OJC   SUNNY     84  67  56 S10       29.99S
LAWRENCE       SUNNY     88  66  48 S15       29.97S HX  90

$$

MOZ001>008-011>017-020>025-030>033-038>040-044>046-053-054-020000-
...NORTHERN AND CENTRAL MISSOURI...

CITY           SKY/WX    TMP DP  RH WIND       PRES   REMARKS
ST. JOSEPH     SUNNY     87  69  54 S13       29.96S HX  91
MOSBY          CLEAR     88  64  45 S9        29.98S
WARRENSBURG    SUNNY     88  64  45 S7        30.00S
WHITEMAN AFB   MOSUNNY   89  67  46 SW13      29.99F HX  92
CLINTON        SUNNY     90  66  45 S8        30.01S HX  92
SEDALIA        PTSUNNY   88  67  49 S12       30.03S HX  91
WARSAW         NOT AVBL
CHILLICOTHE      N/A     89  70  53 S6        29.99S HX  94
KIRKSVILLE     SUNNY     87  70  56 S6        30.02S HX  92

$$

MOZ041-047>049-056>058-063>065-088>090-097-020000-
...EASTERN AND SOUTHERN MISSOURI...

CITY           SKY/WX    TMP DP  RH WIND       PRES   REMARKS
ST. LOUIS INTL MOSUNNY   89  68  49 S8        30.04S HX  93
SPIRIT OF STL  MOSUNNY   89  71  55 S6        30.02S HX  95
COLUMBIA       MOSUNNY   83  69  62 SE14G20   30.04R
JEFFERSON CITY MOSUNNY   84  67  56 E9        30.02R
ROLLA          SUNNY     86  68  54 S12       30.05S
OSAGE BEACH    SUNNY     90  66  45 S8        30.04S HX  92
SPRINGFIELD    SUNNY     87  65  47 SE10      30.04F
BRANSON        MOSUNNY   86  64  48 S7        30.07S
JOPLIN         SUNNY     86  65  49 S12       30.02F
WEST PLAINS    MOSUNNY   83  69  62 S7        30.10R

$$

IAZ060-094-KSZ022-034>040-054-083-096-NEZ052-066-093-020000-
...KANSAS...SOUTHEAST NEBRASKA AND IOWA...

CITY           SKY/WX    TMP DP  RH WIND       PRES   REMARKS
TOPEKA         SUNNY     88  66  48 S15       29.96S HX  90
MANHATTAN      SUNNY     92  62  36 S15       29.91S HX  92
EMPORIA        MOSUNNY   87  64  46 S16G25    29.97S
CHANUTE        SUNNY     86  69  56 S12       30.00R HX  90
WICHITA        MOSUNNY   91  64  40 S18       29.93S HX  92
OMAHA          PTSUNNY   88  73  61 SE16      29.89F HX  95
LINCOLN        MOSUNNY   88  66  48 S15       29.88F HX  90
FALLS CITY     MOSUNNY   89  68  49 S10       29.92F HX  93
LAMONI         MOSUNNY   87  68  52 S12       29.98S HX  90
DES MOINES     PTSUNNY   88  70  55 S13       29.94S HX  93

$$




USA.gov is the U.S. government's official web portal to all federal, state and local government web resources and services.